Total_Precipitation_Accumulation
0.01 0.01 0.02 0.02 0.02 0.04 0.07 0.12 0.20 0.29 0.24 0.34 0.44 0.54 0.68 0.84 1.07 1.12 1.21 1.33 1.61 1.93 2.32 3.04 3.69 4.23 4.90 5.65 6.22 6.13 5.52 5.07 4.62 4.20 3.72 3.70 3.56 3.35 3.15 2.92 2.69 2.66 2.55 2.39
0.01 0.03 0.03 0.03 0.03 0.04 0.07 0.11 0.18 0.23 0.20 0.21 0.38 0.66 0.81 0.87 1.04 1.00 1.01 1.07 1.29 1.68 2.30 3.05 3.66 3.86 3.90 4.16 4.40 3.90 3.72 3.74 3.46 3.30 3.31 3.24 3.11 2.84 2.70 2.70 2.85 2.51 2.47 2.38
0.03 0.04 0.03 0.03 0.04 0.05 0.09 0.12 0.15 0.22 0.22 0.28 0.45 0.86 1.06 0.96 0.98 0.84 0.82 1.04 1.52 1.95 2.38 2.90 3.08 3.10 3.00 2.96 2.93 2.71 2.66 2.99 3.02 3.11 3.17 3.18 3.16 2.99 2.80 2.61 2.74 2.41 2.23 2.26
0.02 0.03 0.03 0.05 0.05 0.05 0.08 0.08 0.06 0.09 0.18 0.42 0.59 1.07 1.30 1.20 1.13 0.86 0.90 1.30 1.80 2.12 2.38 2.37 1.96 1.80 1.95 2.05 2.16 2.42 2.51 2.67 2.64 2.81 2.78 2.70 2.48 2.36 2.29 2.26 2.42 2.51 2.29 2.19
0.03 0.04 0.04 0.05 0.05 0.04 0.06 0.05 0.04 0.08 0.19 0.46 0.75 1.21 1.48 1.36 1.14 0.89 0.85 0.92 1.31 1.47 1.44 1.31 1.18 1.21 1.43 1.72 1.98 2.32 2.43 2.48 2.41 2.41 2.55 2.73 2.64 2.65 2.52 2.43 2.67 2.73 2.77 2.51
0.04 0.05 0.05 0.04 0.04 0.04 0.05 0.07 0.14 0.23 0.41 0.89 0.98 1.10 1.41 1.29 1.06 0.93 0.80 0.71 0.91 0.97 0.83 0.88 0.99 1.20 1.45 1.62 1.75 1.99 2.13 2.32 2.34 2.40 2.52 2.57 2.61 2.77 2.73 2.64 2.54 2.46 2.56 2.50
0.10 0.09 0.07 0.04 0.04 0.05 0.05 0.07 0.29 0.64 0.96 1.11 0.84 0.98 1.33 0.99 0.79 0.67 0.56 0.50 0.52 0.62 0.71 0.88 1.01 1.21 1.32 1.41 1.46 1.64 1.71 1.89 2.06 2.17 2.26 2.34 2.48 2.60 2.55 2.62 2.57 2.48 2.29 2.16
0.15 0.14 0.09 0.05 0.05 0.05 0.05 0.05 0.13 0.26 0.39 0.61 0.79 1.20 1.31 0.91 0.61 0.47 0.44 0.44 0.45 0.53 0.64 0.72 0.86 0.94 1.03 1.22 1.46 1.65 1.61 1.60 1.63 1.68 1.84 2.02 2.08 2.19 2.24 2.53 2.46 2.41 2.30 2.16
0.05 0.05 0.05 0.04 0.05 0.04 0.05 0.04 0.05 0.08 0.12 0.38 0.84 1.14 1.10 0.76 0.59 0.54 0.53 0.54 0.54 0.56 0.68 0.69 0.70 0.86 0.94 0.92 1.06 1.28 1.40 1.46 1.47 1.45 1.55 1.62 1.65 1.80 2.03 2.10 1.97 1.85 1.96 2.08
0.03 0.03 0.03 0.03 0.04 0.04 0.05 0.05 0.05 0.07 0.13 0.29 0.67 1.19 1.46 1.16 0.83 0.65 0.70 0.63 0.57 0.53 0.59 0.72 0.76 0.80 0.83 0.82 0.99 1.15 1.27 1.37 1.39 1.35 1.36 1.29 1.44 1.56 1.76 1.84 1.84 1.76 1.72 1.92
0.03 0.02 0.03 0.03 0.05 0.06 0.06 0.06 0.07 0.09 0.10 0.19 0.50 0.82 0.89 1.00 0.85 0.63 0.66 0.62 0.57 0.51 0.52 0.65 0.69 0.76 0.74 0.73 0.85 1.03 1.23 1.30 1.20 1.23 1.26 1.34 1.42 1.60 1.67 1.65 1.71 1.73 1.75 1.90
0.03 0.02 0.02 0.05 0.07 0.07 0.08 0.09 0.10 0.11 0.13 0.14 0.26 0.45 0.51 0.58 0.69 0.89 0.85 0.70 0.68 0.64 0.57 0.63 0.68 0.73 0.69 0.69 0.77 0.88 1.06 1.20 1.23 1.23 1.30 1.40 1.47 1.56 1.63 1.56 1.67 1.85 1.90 1.97
0.03 0.03 0.04 0.13 0.17 0.15 0.12 0.11 0.11 0.11 0.12 0.12 0.24 0.45 0.47 0.47 0.51 0.64 0.77 0.84 0.72 0.60 0.60 0.64 0.76 0.71 0.65 0.67 0.73 0.86 1.12 1.33 1.50 1.54 1.50 1.48 1.45 1.53 1.66 1.73 1.78 1.88 2.01 2.10
0.03 0.04 0.04 0.10 0.19 0.22 0.21 0.17 0.14 0.11 0.10 0.10 0.16 0.35 0.45 0.56 0.62 0.59 0.71 0.86 0.72 0.56 0.58 0.70 0.79 0.84 0.89 0.90 0.92 1.05 1.23 1.30 1.42 1.42 1.39 1.47 1.53 1.66 1.81 1.88 1.95 2.02 2.04 2.10
0.03 0.03 0.03 0.03 0.07 0.14 0.21 0.20 0.14 0.10 0.08 0.10 0.12 0.22 0.39 0.59 0.72 0.78 0.81 0.86 0.75 0.66 0.71 0.76 0.85 0.92 1.00 1.08 1.07 1.07 1.17 1.20 1.32 1.63 1.75 1.89 1.92 1.95 2.07 2.16 2.16 2.21 2.22 2.19
0.06 0.05 0.04 0.04 0.06 0.09 0.13 0.17 0.13 0.10 0.10 0.11 0.14 0.25 0.40 0.64 0.72 0.79 0.77 0.78 0.76 0.79 0.81 0.90 0.95 1.00 1.06 1.14 1.25 1.29 1.30 1.34 1.54 1.97 2.27 2.38 2.43 2.46 2.51 2.58 2.56 2.56 2.51 2.65
0.12 0.11 0.09 0.06 0.08 0.11 0.16 0.15 0.15 0.13 0.13 0.17 0.23 0.33 0.44 0.60 0.79 0.90 0.81 0.68 0.70 0.73 0.77 0.86 1.02 1.15 1.18 1.24 1.33 1.44 1.51 1.57 1.72 2.01 2.22 2.33 2.44 2.53 2.70 2.74 2.75 2.73 2.74 2.76
0.20 0.21 0.18 0.13 0.14 0.21 0.21 0.22 0.24 0.23 0.24 0.27 0.39 0.51 0.56 0.62 0.73 0.79 0.69 0.66 0.69 0.75 0.86 0.98 1.03 1.19 1.32 1.45 1.61 1.83 2.00 2.11 2.13 2.25 2.42 2.53 2.52 2.56 2.63 2.62 2.54 2.57 2.70 2.72
0.26 0.29 0.27 0.25 0.24 0.24 0.28 0.33 0.34 0.35 0.47 0.52 0.65 0.78 0.85 0.83 0.81 0.93 0.84 0.78 0.79 0.92 1.06 1.26 1.40 1.43 1.54 1.67 1.82 2.00 2.26 2.43 2.49 2.45 2.58 2.70 2.78 2.83 2.72 2.60 2.62 2.66 2.72 2.60
0.31 0.35 0.42 0.37 0.41 0.44 0.41 0.45 0.44 0.49 0.87 0.82 0.88 1.00 1.07 1.13 1.38 1.39 1.11 1.08 1.01 1.00 1.13 1.25 1.43 1.56 1.62 1.80 1.89 1.98 2.14 2.27 2.38 2.43 2.53 2.68 2.76 2.91 3.00 2.92 2.92 2.87 2.79 2.68
0.47 0.51 0.47 0.47 0.53 0.55 0.50 0.48 0.53 0.98 1.38 1.17 1.10 1.16 1.27 1.42 1.46 1.34 1.18 1.24 1.25 1.11 1.09 1.14 1.23 1.41 1.51 1.60 1.72 1.89 1.97 1.98 2.08 2.14 2.16 2.36 2.63 2.82 2.95 3.03 3.01 3.02 2.92 2.81
0.72 0.76 0.71 0.67 0.86 0.97 0.68 0.60 0.92 1.24 1.22 1.34 1.26 1.27 1.37 1.42 1.44 1.43 1.41 1.39 1.30 1.21 1.12 1.15 1.24 1.34 1.41 1.55 1.80 1.99 2.03 2.02 2.05 2.13 2.25 2.38 2.60 2.70 2.73 2.83 2.88 3.00 2.97 2.89
0.99 1.05 1.06 1.06 1.21 1.10 0.81 0.87 0.98 1.02 1.20 1.30 1.33 1.34 1.39 1.41 1.39 1.33 1.27 1.25 1.31 1.24 1.24 1.21 1.24 1.37 1.56 1.76 1.99 2.21 2.24 2.29 2.33 2.37 2.46 2.52 2.58 2.67 2.74 2.79 2.79 2.79 2.76 2.64
1.07 0.92 1.11 1.37 1.52 1.30 1.10 1.06 1.11 1.20 1.33 1.43 1.54 1.60 1.51 1.40 1.31 1.33 1.33 1.30 1.36 1.35 1.30 1.27 1.27 1.36 1.56 1.68 1.79 2.02 2.18 2.25 2.41 2.43 2.37 2.34 2.33 2.38 2.45 2.56 2.60 2.55 2.47 2.41
1.17 1.18 1.36 1.75 1.95 1.82 1.60 1.39 1.34 1.42 1.68 1.84 1.82 1.75 1.68 1.63 1.58 1.63 1.60 1.48 1.40 1.38 1.39 1.39 1.43 1.50 1.54 1.57 1.63 1.76 1.92 2.07 2.27 2.38 2.38 2.41 2.41 2.42 2.45 2.53 2.62 2.49 2.36 2.35
1.15 1.45 1.77 2.09 2.03 2.12 2.00 1.62 1.57 1.61 1.78 1.91 1.85 1.85 1.90 1.88 1.79 1.65 1.58 1.52 1.48 1.47 1.50 1.55 1.60 1.63 1.60 1.58 1.68 1.80 1.94 2.14 2.38 2.39 2.30 2.32 2.40 2.48 2.53 2.57 2.65 2.72 2.47 2.40